Torna al catalogo

COSMOS 1579 COOLANT

LostLEO
NORAD 26518·DEBRIS·🇷🇺 Russia

Lanciato Jun 29, 1984 da Baikonur Cosmodrome

Loading…

Prossimi Passaggi (prossime 24 ore)

TLE

ObsoletoSource: Space-Track

Epoca: Dec 27, 2006, 21:06 UTC

1 26518U 84069K   06361.87958250 +.00000025 +00000-0 +91265-4 0  9993
2 26518 065.0477 089.0263 0058474 287.3212 071.4430 13.90096027367332

Traccia COSMOS 1579 COOLANT in tempo reale con AllMySat

Download on the App Store